カタログに戻る

STARLINK-35721

運用中通信VLEO
NORAD 67046·PAYLOAD·🇺🇸 United States

打ち上げ Dec 11, 2025 から Cape Canaveral Space Force Station

Loading…

次のパス (今後24時間)

TLE

最新Source: CelesTrak SupGP

元期: Sep 14, 2026, 21:34 UTC

1 67046C 25294S   26257.89909722  .00048353  00000+0  17514-2 0  2572
2 67046  43.0032  49.7098 0001782 274.8035 101.8518 15.27552932    17

AllMySatでSTARLINK-35721をリアルタイム追跡

Download on the App Store